Regional Weather Roundup
Issued by NWS Upton, NY

Current Version | Previous Version | Graphics & Text | Print | Product List | Glossary Off
Versions: 1 2 3 4 5 6 7 8 9 10 11 12 13 14 15 16 17 18 19 20 21 22 23 24 25 26 27 28 29 30 31 32 33 34 35 36 37 38 39 40 41 42 43 44 45 46 47 48 49 50

000
ASUS41 KOKX 160905
RWROKX
REGIONAL WEATHER ROUNDUP
NATIONAL WEATHER SERVICE NEW YORK NY
500 AM EDT TUE SEP 16 2014

NOTE: "FAIR" INDICATES FEW OR NO CLOUDS BELOW 12,000 FEET WITH NO
SIGNIFICANT WEATHER AND/OR OBSTRUCTIONS TO VISIBILITY.

NYZ071-072-176-178-NJZ106-104-161000-
NEW YORK CITY METRO AREA


CITY           SKY/WX    TMP DP  RH WIND       PRES   REMARKS
CENTRAL PARK   MOCLDY    63  52  67 VRB3      30.05F
LAGUARDIA APRT CLOUDY    63  54  72 SW6       30.03F
KENNEDY INTL   CLOUDY    63  55  75 SW9       30.04F
NEWARK/LIBERTY MOCLDY    59  53  80 CALM      30.02F
BRNX BOT. GARD   N/A     61  54  77 CALM      30.05R
TETERBORO      PTCLDY    60  52  74 CALM      30.02F
$$

NYZ177-179-078>081-161000-
LONG ISLAND NEW YORK

CITY           SKY/WX    TMP DP  RH WIND       PRES   REMARKS
FARMINGDALE    MOCLDY    58  52  80 CALM      30.04F
ISLIP          CLOUDY    59  53  80 CALM      30.03S
SHIRLEY        CLOUDY    53  51  93 CALM      30.05S
WESTHAMPTON    CLOUDY    50  46  86 CALM      30.06S
MONTAUK POINT    N/A     56  52  86 CALM      30.06S
$$

NYZ052-065-067-161000-
HUDSON VALLEY

CITY           SKY/WX    TMP DP  RH WIND       PRES   REMARKS
WHITE PLAINS   MOCLDY    56  53  90 CALM      30.03F
NEWBURGH       MOCLDY    55  52  88 CALM      30.04F
MONTGOMERY     CLOUDY    53  50  89 CALM      30.02F
POUGHKEEPSIE   CLOUDY    55  52  89 CALM      30.02F
ALBANY         LGT RAIN  53  50  89 CALM      30.04R
$$

NJZ001-105-106-008-010-013-015-019>022-104-161000-
NEW JERSEY

CITY           SKY/WX    TMP DP  RH WIND       PRES   REMARKS
NEWARK/LIBERTY MOCLDY    59  53  80 CALM      30.02F
TETERBORO      PTCLDY    60  52  74 CALM      30.02F
CALDWELL       PTCLDY    53  49  86 CALM      30.03F
MORRISTOWN     PTCLDY    50  48  93 CALM      30.03F
SOMERVILLE     CLEAR     51  48  89 CALM      30.01F
LINDEN         FAIR      62  56  81 CALM      30.04F
SUSSEX         MOCLDY    52  48  86 CALM      30.02F
ANDOVER          N/A     51  50  96 CALM      30.02F
TRENTON        PTCLDY    55  51  86 CALM      30.01F
MILLVILLE      CLOUDY    59  57  93 SE3       30.01F
ATLANTIC CITY  MOCLDY    55  54  96 CALM      30.02F
WRIGHTSTOWN    MOCLDY    54  53  95 E1        30.00F
TOMS RIVER     PTCLDY    50  48  93 CALM      30.03F
BELMAR         PTCLDY    55  48  76 S3        30.02F
$$

PAZ047>061-062-071-161000-
EASTERN PENNSYLVANIA

CITY           SKY/WX    TMP DP  RH WIND       PRES   REMARKS
PHILADELPHIA   CLOUDY    62  55  77 E3        30.00F
ALLENTOWN      CLOUDY    53  50  89 NE6       30.00F
SCRANTON       LGT RAIN  54  51  90 CALM      30.02S
$$

CTZ002-004>006-009-010-012-RIZ004-006-007-MAZ004-011-015-161000-
SOUTHERN NEW ENGLAND
 IN CT

CITY           SKY/WX    TMP DP  RH WIND       PRES   REMARKS
BRADLEY INTL   CLOUDY    52  48  86 CALM      30.04S
HARTFORD       CLOUDY    54  50  86 S5        30.04F
DANBURY        CLOUDY    52  50  93 CALM      30.05F
WTRBRY/OXFORD  CLOUDY    52  46  82 CALM      30.06F
BRIDGEPORT     CLOUDY    66  54  65 SW6       30.04S
MERIDEN        CLOUDY    53  49  86 CALM      30.05S
NEW HAVEN      CLOUDY    57  51  80 CALM      30.05S
CHESTER        FAIR      52  50  93 CALM      30.06S
GROTON         CLOUDY    52  50  93 N3        30.05R
WILLIMANTIC    CLOUDY    49  46  90 CALM      30.06S

 IN RI

CITY           SKY/WX    TMP DP  RH WIND       PRES   REMARKS
PROVIDENCE     CLOUDY    52  49  89 CALM      30.06S
BLOCK ISLAND   MOCLDY    55  46  71 S3        30.05S
WESTERLY       CLOUDY    51  49  92 CALM      30.06S

 IN MA

CITY           SKY/WX    TMP DP  RH WIND       PRES   REMARKS
BOSTON         CLOUDY    56  49  77 S5        30.05S
WORCESTER      CLOUDY    52  45  77 SW3       30.06R
WESTFIELD      CLOUDY    52  49  89 CALM      30.05S
PROVINCETOWN   CLOUDY    59  50  72 SE7       30.05F
NANTUCKET      MOCLDY    59  49  69 SE10      30.05F
$$

ANZ330-335-338-340-345-350-353-355-161000-
COASTAL MARINE OBSERVATIONS


STATION/POSITION TIME  SKY/WX   TEMP    WIND        PRES    VSBY  WAVE
                                AIR SEA DIR/SP/G                  HT/PER
                 (UTC)          (F)     (DEG/KT/KT) (MB)    (MI)  (FT/S)
NY HARB ENTRANCE NOT AVBL
4S FIRE IS       NOT AVBL
23SW MTP         0900                                 N/A           2/ 6
HUDSON CANYON    0900            67 73  290/  6/ 10 1017.3          2/13
EXECUTION ROCKS  0900            66 71  260/ 12/ 14   N/A
WESTERN LI SOUND 0900            65     220/ 10/ 12   N/A           1
CENTRAL LI SOUND 0800            65 71  210/ 10/ 12   N/A           1/ 3
EASTERN LI SOUND 0800            61 68   30/  6/  8   N/A
ROBBINS REEF     0800            62     270/  7/  8 1015.8
$$


>>>>>>>>>>>>>>>>>>>>>>>>>>>> KEY <<<<<<<<<<<<<<<<<<<<<<<<<<<
>                                                          <
>     SKY/WX - SKY CONDITION/PRESENT WEATHER               <
>     TMP    - TEMPERATURE IN FAHRENHEIT                   <
>     DP     - DEWPOINT IN FAHRENHEIT                      <
>     RH     - RELATIVE HUMIDITY IN PERCENT                <
>     WIND   - DIRECTION AND SPEED IN MPH                  <
>     PRES   - MEAN SEA LEVEL PRESSURE IN INCHES OF HG     <
>     WCI    - WIND CHILL INDEX                            <
>     VSB    - VISIBILITY IN MILES                         <
>     HX     - HEAT INDEX                                  <
>     TC     - TEMPERATURE IN CELSIUS                      <
>     VRB    - VARIABLE WIND DIRECTION                     <
>                                                          <
>>>>>>>>>>>>>>>>>>>>>>>>>>>> KEY <<<<<<<<<<<<<<<<<<<<<<<<<<<





USA.gov is the U.S. government's official web portal to all federal, state and local government web resources and services.